This demonstration page uses our WeatherBlox Daily Observations layout. Learn more.

Left ArrowRight Arrow

Hourly Observations for August 28, 2020

Temp ( °F °C ) Dew Point ( °F °C ) Humidity (%) Winds ( mph kmh ) Pressure ( in mb ) Visibility ( mi km ) Precip ( " mm )
12:15 am 00:15 Clear 71 21.5 63 17.2 77 77 SE 6 9 29.73 1007 10 16 N/A
12:55 am 00:55 Clear 71 21.5 63 17.1 76 76 SSE 5 7 29.71 1006 10 16 N/A
1:15 am 01:15 Clear 71 21.5 63 17.1 76 76 S 6 9 29.71 1006 10 16 N/A
1:35 am 01:35 Clear 71 21.6 63 17 75 75 S 5 7 29.70 1006 10 16 N/A
1:55 am 01:55 Clear 71 21.4 63 17 76 76 SSE 6 9 29.70 1006 10 16 N/A
2:15 am 02:15 Clear 70 21.2 63 17 77 77 S 3 6 29.71 1006 10 16 N/A
2:35 am 02:35 Clear 70 21.1 63 17 78 78 S 5 7 29.70 1006 10 16 N/A
2:55 am 02:55 Clear 69 20.8 63 17 79 79 S 7 11 29.71 1006 10 16 N/A
3:15 am 03:15 Clear 71 21.5 63 17 76 76 S 8 13 29.72 1006 10 16 N/A
3:35 am 03:35 Clear 69 20.7 63 17 79 79 SSW 8 13 29.71 1006 10 16 N/A
3:55 am 03:55 Clear 70 20.9 63 17 78 78 S 5 7 29.71 1006 10 16 N/A
4:15 am 04:15 Clear 68 20.1 63 17 82 82 S 5 7 29.71 1006 10 16 N/A
4:35 am 04:35 Clear 68 19.8 63 17 84 84 S 5 7 29.71 1006 10 16 N/A
4:55 am 04:55 Clear 67 19.4 63 17 86 86 SSE 3 6 29.71 1006 10 16 N/A
5:15 am 05:15 Clear 66 19 62 16.7 87 87 N N/A 29.72 1006 10 16 N/A
5:35 am 05:35 Clear 65 18.6 62 16.7 89 89 N N/A 29.72 1006 10 16 N/A
5:55 am 05:55 Clear 64 17.9 61 16.3 90 90 SE 5 7 29.74 1007 10 16 N/A
6:15 am 06:15 Clear 65 18.6 62 16.7 89 89 SSE 6 9 29.74 1007 10 16 N/A
6:35 am 06:35 Clear 67 19.3 63 17 87 87 SSE 6 9 29.74 1007 10 16 N/A
6:55 am 06:55 Clear 67 19.4 63 17 86 86 S 5 7 29.75 1008 10 16 N/A
7:15 am 07:15 Sunny 66 18.9 62 16.5 86 86 N N/A 29.75 1007 10 16 N/A
7:35 am 07:35 Sunny 66 19.1 63 17.3 89 89 NNW 9 15 29.79 1009 10 16 N/A
7:55 am 07:55 Sunny 67 19.3 64 17.6 90 90 N 7 11 29.80 1009 10 16 N/A
8:15 am 08:15 Sunny 69 20.5 64 18 86 86 N N/A 29.77 1008 10 16 N/A
8:35 am 08:35 Sunny 71 21.8 65 18.5 82 82 SE 5 7 29.76 1008 10 16 N/A
8:55 am 08:55 Sunny 74 23.1 65 18.3 74 74 E 5 7 29.75 1008 10 16 N/A
9:15 am 09:15 Sunny 75 23.8 64 18 70 70 ESE 6 9 29.75 1007 10 16 N/A
9:35 am 09:35 Sunny 76 24.4 65 18.5 70 70 ESE 5 7 29.74 1007 10 16 N/A
9:55 am 09:55 Sunny 78 25.5 66 18.7 66 66 SE 5 7 29.72 1007 10 16 N/A
10:15 am 10:15 Sunny 79 26.2 66 18.9 64 64 ESE 6 9 29.73 1007 10 16 N/A
10:35 am 10:35 Sunny 81 27.2 65 18.2 58 58 ESE 7 11 29.72 1006 10 16 N/A
10:55 am 10:55 Sunny 82 28 65 18.3 56 56 SE 6 9 29.70 1006 10 16 N/A
11:15 am 11:15 Sunny 83 28.6 65 18.1 53 53 N N/A 29.72 1006 10 16 N/A
11:35 am 11:35 Partly Cloudy 85 29.5 64 18 50 50 SSE 6 9 29.70 1006 10 16 N/A
11:55 am 11:55 Sunny 85 29.5 64 17.7 49 49 N N/A 29.71 1006 10 16 N/A
12:15 pm 12:15 Sunny 85 29.5 65 18.6 52 52 N 3 6 29.70 1006 10 16 N/A
12:35 pm 12:35 Sunny 85 29.5 67 19.3 54 54 NNW 9 15 29.70 1006 10 16 N/A
12:55 pm 12:55 Sunny 85 29.4 67 19.7 56 56 N 8 13 29.71 1006 10 16 N/A
1:15 pm 13:15 Sunny 85 29.5 67 19.6 55 55 N 6 9 29.72 1006 10 16 N/A
1:35 pm 13:35 Sunny 85 29.6 67 19.3 54 54 N 7 11 29.70 1006 10 16 N/A
1:55 pm 13:55 Sunny 87 30.4 67 19.3 51 51 NE 5 7 29.72 1006 10 16 N/A
2:15 pm 14:15 Sunny 88 30.9 67 19.4 50 50 N 6 9 29.69 1005 10 16 N/A
2:35 pm 14:35 Sunny 89 31.4 67 19.5 49 49 NE 8 13 29.70 1006 10 16 N/A
2:55 pm 14:55 Sunny 89 31.5 68 19.9 50 50 NNE 12 19 29.70 1006 10 16 N/A
3:15 pm 15:15 Sunny 89 31.7 67 19.5 48 48 NNE 14 22 29.72 1006 10 16 N/A
3:35 pm 15:35 Sunny 90 32.1 67 19.4 47 47 NNE 15 24 29.70 1006 10 16 N/A
3:55 pm 15:55 Sunny 89 31.6 66 18.8 47 47 NE 16 26 29.70 1006 10 16 N/A
4:15 pm 16:15 Sunny 85 29.7 65 18.4 51 51 NNE 15 24 29.71 1006 10 16 N/A
4:35 pm 16:35 Sunny 86 29.8 66 18.7 51 51 N 13 20 29.73 1007 10 16 N/A
4:55 pm 16:55 Sunny 87 30.6 66 18.7 49 49 NNE 16 26 29.73 1007 10 16 N/A
5:15 pm 17:15 Sunny 86 30.1 65 18.3 49 49 NNE 13 20 29.73 1007 10 16 N/A
5:35 pm 17:35 Sunny 85 29.7 64 18 49 49 NNE 13 20 29.73 1007 10 16 N/A
5:55 pm 17:55 Sunny 82 28 64 17.9 54 54 N 14 22 29.75 1008 10 16 N/A
6:15 pm 18:15 Partly Cloudy 81 27.1 63 17.1 54 54 NNE 8 13 29.77 1008 10 16 N/A
6:35 pm 18:35 Mostly Cloudy 80 26.9 62 16.8 54 54 N 13 20 29.79 1009 10 16 N/A
6:55 pm 18:55 Mostly Cloudy 80 26.6 62 16.5 54 54 N 10 17 29.79 1009 10 16 N/A
7:15 pm 19:15 Mostly Cloudy 79 25.9 62 16.6 57 57 N 7 11 29.81 1009 10 16 N/A
7:35 pm 19:35 Partly Cloudy 77 25.2 63 17 60 60 N 7 11 29.82 1010 10 16 N/A
7:55 pm 19:55 Mostly Cloudy 77 25 63 17 61 61 N 7 11 29.85 1011 10 16 N/A
8:15 pm 20:15 Partly Cloudy 76 24.5 63 17 63 63 N 6 9 29.85 1011 10 16 N/A
8:35 pm 20:35 Clear 75 23.9 64 17.6 68 68 NNE 8 13 29.86 1011 10 16 N/A
8:55 pm 20:55 Partly Cloudy 76 24.3 64 17.5 66 66 N 8 13 29.86 1011 10 16 N/A
9:15 pm 21:15 Mostly Cloudy with Light Rain 74 23.6 64 17.7 70 70 N 10 17 29.87 1011 10 16 N/A
9:35 pm 21:35 Partly Cloudy 74 23.3 64 17.6 70 70 NNE 12 19 29.86 1011 10 16 N/A
9:55 pm 21:55 Clear 74 23.3 63 17.2 69 69 NNE 12 19 29.89 1012 10 16 N/A
10:15 pm 22:15 Clear 73 23 63 17 69 69 N 13 20 29.90 1013 10 16 N/A
10:35 pm 22:35 Clear 71 21.8 63 17 74 74 NNE 10 17 29.92 1013 10 16 N/A
10:55 pm 22:55 Clear 71 21.5 62 16.6 74 74 NNE 9 15 29.92 1013 10 16 N/A
11:15 pm 23:15 Clear 70 21 62 16.6 76 76 NNE 7 11 29.93 1014 10 16 N/A
11:35 pm 23:35 Clear 69 20.6 62 16.7 78 78 NNE 7 11 29.93 1014 10 16 N/A
11:55 pm 23:55 Clear 68 20 62 16.8 82 82 N 6 9 29.94 1014 10 16 N/A

Powered by AerisWeather